[ hide orbit diagram ]
For accurate long-term ephemerides, please instead use our Horizons system.This orbit viewer was implemented using two-body methods, and hence should not be used for determining accurate long-term trajectories (over several years or decades) or planetary encounter circumstances.
Orbital Elements at Epoch 2459200.5 (2020-Dec-17.0) TDB
Reference: JPL 19 (heliocentric ecliptic J2000)
Element | Value | Uncertainty (1-sigma) | Units |
e | .1462363326666354 | 4.3625e-08 | |
a | 3.199506125724334 | 3.2518e-08 | au |
q | 2.731622083553973 | 1.4861e-07 | au |
i | 21.43613396232056 | 4.5982e-06 | deg |
node | 333.1446863791147 | 1.1693e-05 | deg |
peri | 251.1307403482018 | 2.6025e-05 | deg |
M | 178.5421043775942 | 2.8578e-05 | deg |
tp | 2458163.781151785571 (2018-Feb-14.28115179) | 0.00015536 | TDB |
period | 2090.368468873221 5.72 | 3.1868e-05 8.725e-08 | d yr |
n | .1722184415621482 | 2.6255e-09 | deg/d |
Q | 3.667390167894696 | 3.7273e-08 | au |
|
| | Orbit Determination Parameters
Additional Information
|
[ show covariance matrix ]
Physical Parameter Table
Parameter |
Symbol |
Value |
Units |
Sigma |
Reference |
Notes |
absolute magnitude |
H |
14.22 |
|
n/a |
E2021B10 |
|
diameter |
diameter |
7.891 |
km |
0.141 |
urn:nasa:pds:neowise_diameters_albedos::2.0[mainbelt] (http://adsabs.harvard.edu/abs/2011ApJ...741...68M) |
|
geometric albedo |
albedo |
0.078 |
|
0.012 |
urn:nasa:pds:neowise_diameters_albedos::2.0[mainbelt] (http://adsabs.harvard.edu/abs/2011ApJ...741...68M) |
|
|
97488 (2000 CG76) Discovered 2000-Feb-05 by Korlevic, K. at Visnjan |
Reference: 20050224/Numbers.arc | Last Updated: 2005-02-28 |
|
[ show close-approach data ]
|